Showing default

APRIZESAT 9, 40018

Orbit data source: Space-Track

APRIZESAT 9, 40018 is a payload satellite owned by SpaceQuest (US) in SSO that was launched on Thu, 19 Jun 2014 UTC via a DNEPR launch vehicle from the Orenburg, Russia (OREN). Payload-class satellites include a variety of spacecraft equipped with specific instruments for various scientific and technological missions. These include communications satellites like Starlink; space stations such as the ISS; scientific satellites like the Hubble; Earth observation satellites from companies like Planet Labs, Umbra, and HawkEye 360; GPS; miniature CubeSats for education and research; and military/defense satellites.

Loading next visibility...
Identifier
40018, 2014-033J
Orbit
SSO
Country
Flag of USUS
Related business
Manufacturer
SpaceQuest
Mission
Operational Commercial Communications
Bus & Motor
APRIZE, Unknown motor
Mass
14 kg wet, 14 kg dry
Launch date (UTC)
2014-06-19 (12 years ago)
Launch vehicle
DNEPR
Launch site
Orenburg, Russia (OREN)
Object type
Payload
Rocket body
Debris
Shape & HBR
Box + 1 Ant, 0.1 m
Radar Cross Section
0.060 m², Medium (>0.1 m² and < 1m²)

Expand to show TLE details & history
Last TLE update: 2 days ago

TLE from 2 days ago
0 APRIZESAT 9
1 40018U 14033J   26171.32982182  .00000543  00000-0  87161-4 0  9995
2 40018  97.9066 304.4516 0065933 189.0281 170.9748 14.74218164644020
Epoch: 2026-06-20T07:54Z
TLE epoch observation values (Epoch: 2026-06-20T07:54:56.605Z)
Latitude
0.00003°
Longitude
-82.83026°
Altitude
696.414 km
Speed
7.483 km/s
True Right ascension
20h 17m 48s
True Declination
0° 00' 00"
Sunlit
Object was in full shadow at epoch
Visualization orbit readout
Latitude
Unknown
Longitude
Unknown
Altitude
Unknown
Speed
Unknown
Apparent Right ascension
Unknown
Apparent Declination
Unknown
Sunlit
N/A
Visualization observer readout
Local Sidereal Time
21:41:01
Azimuth
Unknown
Elevation
Unknown
Doppler factor
Unknown
Orbital elements
Apogee altitude
690.986 km
Perigee altitude
598.379 km
Semi-major axis
7,022.82 km
Eccentricity
0.00659
Inclination
97.9066°
RAAN
304.4516°
Arg. of periapsis
189.0281°
True anomaly
171.09236°
Mean anomaly
170.9748°
Eccentric anomaly
171.03368°
Mean motion
3.68787 °/min
Orbital period
97.62 mins
BSTAR
0.000087161
Loading maneuver chart data...
Computing Atmospheric mass density...
Loading historical data...
Loading historical data...
Loading historical data...
Loading historical data...
Loading historical data...
Loading historical data...
Loading historical data...

Documentation

Showing up to 5 results
|